AO-07 1 07530U 74089B 18013.52941676 -.00000043 00000-0 12028-4 0 9991 2 07530 101.6651 343.3131 0011820 275.4786 201.3550 12.53630589975218 UO-11 1 14781U 84021B 18013.55528545 .00000090 00000-0 17255-4 0 9991 2 14781 97.6706 56.1896 0007478 222.9313 137.1318 14.82973008821525 LO-19 1 20442U 90005G 18012.77331545 +.00000002 +00000-0 +17065-4 0 9998 2 20442 098.5964 312.3439 0010682 247.3498 112.6557 14.32884066461576 HUBBLE 1 20580U 90037B 18013.21794858 .00000478 00000-0 18344-4 0 9994 2 20580 28.4706 59.4798 0002427 273.9854 150.0016 15.08961672322037 MET-2/21 1 22782U 93055A 18012.93338326 +.00000041 +00000-0 +23717-4 0 9991 2 22782 082.5473 217.1285 0021848 199.8354 269.3423 13.83805871230435 AO-27 1 22825U 93061C 18012.89076581 +.00000004 +00000-0 +19208-4 0 9992 2 22825 098.8424 346.3653 0009486 080.5683 279.6570 14.30019078267108 IO-26 1 22826U 93061D 18013.08340143 .00000012 00000-0 22418-4 0 9999 2 22826 98.8366 346.6179 0009971 71.0490 289.1771 14.30349819267580 FO-29 1 24278U 96046B 18013.53767473 -.00000031 00000-0 25161-5 0 9998 2 24278 98.5313 233.4725 0350859 151.9710 210.0822 13.53080362 57327 NOAA-15 1 25338U 98030A 18012.89741709 +.00000042 +00000-0 +36581-4 0 9991 2 25338 098.7768 029.1664 0009904 322.7042 037.3449 14.25834887022631 GO-32 1 25397U 98043D 18013.55132849 -.00000017 00000-0 11454-4 0 9998 2 25397 98.6344 316.6820 0002351 99.1239 261.0205 14.23637828 13725 ISS 1 25544U 98067A 18012.80420464 +.00002491 +00000-0 +44595-4 0 9997 2 25544 051.6431 073.3294 0003407 008.0126 102.1629 15.54299089094355 NO-44 1 26931U 01043C 18012.93049107 -.00000027 +00000-0 +21356-4 0 9995 2 26931 067.0512 270.0172 0005257 276.4567 083.5935 14.30490416850276 SO-50 1 27607U 02058C 18013.13100076 .00000003 00000-0 21117-4 0 9997 2 27607 64.5537 203.9654 0046346 7.3346 352.8423 14.75411418810089 CO-55 1 27844U 03031E 18013.02969449 .00000070 00000-0 51204-4 0 9991 2 27844 98.6885 23.9650 0010818 99.8549 260.3851 14.22088281754140 CO-57 1 27848U 03031J 18013.01639181 .00000050 00000-0 42609-4 0 9998 2 27848 98.6974 24.2952 0010678 108.8016 251.4320 14.21695853754012 RS-22 1 27939U 03042A 18013.51791997 .00000091 00000-0 24926-4 0 9997 2 27939 97.9660 156.8774 0011655 279.7805 155.5521 14.66648692764141 NOAA-18 1 28654U 05018A 18012.96227209 -.00000002 +00000-0 +24207-4 0 9990 2 28654 099.1643 045.1097 0014130 199.9620 160.0999 14.12363584651777 CO-58 1 28895U 05043F 18012.94149359 +.00000141 +00000-0 +35849-4 0 9999 2 28895 097.8858 170.8933 0016534 195.9768 164.0916 14.63497227650939 Falconsat-3 1 30776U 07006E 18012.47904064 +.00002077 +00000-0 +63723-4 0 9993 2 30776 035.4348 177.4209 0002613 046.0947 313.9994 15.33738429600395 CO-65 1 32785U 08021C 18012.85322305 .00000242 00000-0 31886-4 0 9994 2 32785 97.5539 32.4005 0012880 187.1265 172.9771 14.88044683526078 AAUSAT2 1 32788U 08021F 18012.86574377 +.00000180 +00000-0 +21865-4 0 9993 2 32788 097.5380 045.7221 0012805 143.6842 216.5250 14.94185905526883 DO-64 1 32789U 08021G 18013.15403207 .00001303 00000-0 94243-4 0 9998 2 32789 97.5346 71.7552 0014155 106.2238 254.0548 15.05673260528457 CO-66 1 32791U 08021J 18012.58927036 +.00000321 +00000-0 +38330-4 0 9992 2 32791 097.5471 037.1267 0013684 170.3383 189.8101 14.90442969526256 RS-30 1 32953U 08025A 18013.34821335 .00000001 00000-0 -63101-4 0 9996 2 32953 82.5041 108.9828 0019575 184.6741 175.4159 12.43080879437534 PRISM 1 33493U 09002B 18013.40771654 .00001013 00000-0 95702-4 0 9992 2 33493 98.1457 269.4331 0016591 104.5455 255.7545 14.96044095487208 NOAA-19 1 33591U 09005A 18012.91373785 +.00000111 +00000-0 +85378-4 0 9998 2 33591 099.1223 348.0240 0014742 045.5726 314.6649 14.12245437459999 TISAT-1 1 36799U 10035E 18012.93018346 +.00000324 +00000-0 +39087-4 0 9999 2 36799 098.0843 145.2719 0012260 004.6182 355.5146 14.90665961406825 JUGNU 1 37839U 11058B 18013.02505961 .00000309 00000-0 22823-4 0 9999 2 37839 19.9605 258.1195 0018887 336.4680 156.3543 14.12606209323405 SRMSAT 1 37841U 11058D 18013.17760345 .00000303 00000-0 21346-4 0 9990 2 37841 19.9726 303.2011 0011804 227.0820 276.1670 14.10596033322967 AO-71 1 37854U 11061E 18012.93657615 +.00000482 +00000-0 +33593-4 0 9991 2 37854 101.7094 358.3784 0164909 173.6827 186.6517 15.05004443338028 HRBE 1 37855U 11061F 18012.89108157 +.00001284 +00000-0 +73847-4 0 9996 2 37855 101.7218 355.9702 0177899 181.6498 178.4149 15.03977512337837 ALMASAT-1 1 38078U 12006B 18013.51020465 .00028112 39214-5 26984-3 0 9991 2 38078 69.4355 282.1531 0269929 338.0701 73.8192 15.33037622316890 HORYU-2 1 38340U 12025D 18012.91760172 +.00000234 +00000-0 +42560-4 0 9993 2 38340 098.3748 029.2370 0011328 351.1813 008.9194 14.75482654293808 RS-40 1 38735U 12041C 18012.87694862 +.00000026 +00000-0 +11593-3 0 9996 2 38735 082.4742 193.4439 0016285 292.7131 067.2227 12.42576208247719 BEESAT-3 1 39134U 13015E 18012.95011549 +.00001128 +00000-0 +63294-4 0 9996 2 39134 064.8633 268.9011 0029389 230.6320 129.2203 15.18710306260948 BEESAT-2 1 39136U 13015G 18012.90155338 +.00000696 +00000-0 +46234-4 0 9992 2 39136 064.8698 282.8069 0030965 253.3723 106.4002 15.15797062260664 ZACUBE-1 1 39417U 13066B 18012.63782857 +.00000223 +00000-0 +34753-4 0 9991 2 39417 097.6055 049.4368 0057920 305.3869 054.1941 14.80858266223772 TRITON-1 1 39427U 13066M 18012.99047591 .00000247 00000-0 47232-4 0 9992 2 39427 97.6364 19.2629 0115040 37.2161 323.6948 14.67596310221813 GOMX-1 1 39430U 13066Q 18013.52084058 .00000238 00000-0 51721-4 0 9993 2 39430 97.6808 1.6960 0153057 98.7389 263.1181 14.59004338220605 LO-74 1 39440U 13066AA 18013.53644523 .00000245 00000-0 41413-4 0 9999 2 39440 97.6113 37.8879 0079994 338.7072 21.0816 14.75596482223117 AO-73 1 39444U 13066AE 18012.84958485 +.00000272 +00000-0 +40284-4 0 9996 2 39444 097.6069 050.9640 0057041 300.5573 059.0019 14.81620642222067 SPROUT 1 39770U 14029E 18013.52882187 .00000714 00000-0 86647-4 0 9993 2 39770 97.8752 115.9447 0009163 7.1083 353.0270 14.86628864197386 DUCHIFAT-1 1 40021U 14033M 18012.75328486 .00000355 00000-0 42583-4 0 9992 2 40021 97.9177 291.1929 0012542 337.1528 22.9130 14.90167286193807 NANOSATCBR1 1 40024U 14033Q 18012.71849382 .00000383 00000-0 46203-4 0 9998 2 40024 97.9122 289.6952 0011868 339.1898 20.8834 14.89450958193739 EO-79 1 40025U 14033R 18013.21587770 .00000263 00000-0 34249-4 0 9999 2 40025 97.9093 288.9036 0012094 341.4024 18.6749 14.88615530193739 DTUSAT-2 1 40030U 14033W 18012.73700624 .00000252 00000-0 33421-4 0 9995 2 40030 97.9048 287.3114 0011461 337.9102 22.1619 14.88229234193614 EO-80 1 40032U 14033Y 18013.32620917 .00000244 00000-0 32522-4 0 9991 2 40032 97.9055 287.9032 0011362 336.3661 23.7032 14.88165108193695 ANTELSAT 1 40034U 14033AA 18012.87413988 +.00000240 +00000-0 +43457-4 0 9995 2 40034 097.8324 254.9751 0058574 339.5555 020.3309 14.73845418191275 VELOX-1 1 40057U 14034E 18013.21095611 .00000301 00000-0 49977-4 0 9990 2 40057 98.1951 121.7097 0012432 104.0866 256.1733 14.77321679190762 DAURIA DX 1 1 40071U 14037C 18013.17477315 .00000119 00000-0 22725-4 0 9998 2 40071 98.3552 137.8409 0009820 96.7931 263.4396 14.81111986190050 UKUBE-1 1 40074U 14037F 18013.51758189 .00000237 00000-0 35760-4 0 9994 2 40074 98.3671 143.1912 0005907 93.1703 267.0185 14.83697530190360 HODOYOSHI-1 1 40299U 14070B 18013.43964297 .00000519 00000-0 25221-4 0 9994 2 40299 97.3898 97.8868 0014893 75.7610 345.0284 15.22687783176938 CHUBUSAT-1 1 40300U 14070C 18013.46221358 .00000731 00000-0 35547-4 0 9992 2 40300 97.3793 94.3780 0022188 85.0616 330.1745 15.21340379176759 QSAT-EOS 1 40301U 14070D 18012.82989718 .00001441 00000-0 61367-4 0 9991 2 40301 97.3732 94.4609 0028692 80.4135 40.4890 15.24230926176756 FIREBIRD FU3 1 40377U 15003B 18013.17183243 .00001831 00000-0 79283-4 0 9998 2 40377 99.1058 244.0888 0133526 26.2901 334.5023 15.16573369162824 FIREBIRD FU4 1 40378U 15003C 18013.55763254 .00001723 00000-0 74791-4 0 9996 2 40378 99.1059 244.6016 0133703 24.9128 335.8475 15.16586321162881 GRIFEX 1 40379U 15003D 18013.23938988 .00001206 00000-0 57092-4 0 9991 2 40379 99.1095 241.0903 0140386 36.2760 324.7885 15.13860437162658 NO-84 1 40654U 15025D 18012.51969470 +.00006166 +00000-0 +10790-3 0 01918 2 40654 054.9939 018.1009 0169926 074.6945 287.2735 15.37845626031877 NO-83 1 40655U 15025E 18012.36806282 +.00013721 +00000-0 +16923-3 0 02250 2 40655 054.9795 338.0205 0128684 097.8495 263.7155 15.51202999032055 DEORBITSAIL 1 40719U 15032E 18012.70920443 +.00000393 +00000-0 +63987-4 0 9995 2 40719 097.9612 268.6073 0016095 184.6455 175.4608 14.76302416135232 NUDT-PHONESAT 1 40900U 15049B 18012.91193088 +.00002156 +00000-0 +10122-3 0 9996 2 40900 097.4423 023.0240 0012840 206.7740 153.2834 15.20654270128319 XW-2A 1 40903U 15049E 18013.54969784 .00001809 00000-0 47561-4 0 9995 2 40903 97.4024 46.7647 0013201 223.2630 136.7580 15.39885252130005 XW-2C 1 40906U 15049H 18012.91457250 +.00000705 +00000-0 +41235-4 0 9994 2 40906 097.4576 019.2996 0014424 202.5405 157.5196 15.14971300127980 XW-2D 1 40907U 15049J 18013.54209359 .00000688 00000-0 40175-4 0 9992 2 40907 97.4548 19.6335 0013876 197.8560 162.2187 15.15106189128080 LILACSAT-2 1 40908U 15049K 18012.90422762 +.00000397 +00000-0 +25830-4 0 9995 2 40908 097.4656 018.5604 0015449 200.9762 159.0838 15.13380223127881 XW-2F 1 40910U 15049M 18013.54080113 .00001024 00000-0 56340-4 0 9997 2 40910 97.4559 20.6699 0014728 194.6332 165.4477 15.16191595128016 XW-2B 1 40911U 15049N 18012.95977571 +.00000721 +00000-0 +42012-4 0 9999 2 40911 097.4587 019.5379 0013736 200.4448 159.6236 15.15056055127895 DCBB 1 40912U 15049P 18013.43836122 .00000997 00000-0 51716-4 0 9996 2 40912 97.4514 22.9969 0014933 184.2698 282.6276 15.18367263128188 TW-1C 1 40926U 15051B 18013.49882623 .00006543 00000-0 13288-3 0 9991 2 40926 97.2048 56.6570 0012307 118.7889 350.9951 15.46596755129385 TW-1A 1 40928U 15051D 18013.39037909 .00002848 00000-0 78746-4 0 9996 2 40928 97.2045 50.3676 0012633 152.4499 333.4837 15.37774553128984 IO-86 1 40931U 15052B 18013.44793836 .00000562 00000-0 -10852-4 0 9991 2 40931 5.9957 173.5592 0013779 342.1929 17.7904 14.76560625124099 LQSat 1 40958U 15057A 18013.42404072 .00000014 00000-0 98988-5 0 9992 2 40958 97.9583 89.8426 0019508 110.9954 249.3341 14.73011386122069 AO-85 1 40967U 15058D 18012.32921683 +.00000323 +00000-0 +54109-4 0 02052 2 40967 064.7775 304.3544 0189966 003.4553 356.7831 14.75618141030651 ATHENOXAT-1 1 41168U 15077C 18013.43947795 .00001813 00000-0 63358-4 0 9993 2 41168 14.9863 72.5708 0012155 52.3015 317.9519 15.12374112114910 ChubuSat-2 1 41338U 16012B 18011.99469837 .00000304 00000-0 17091-4 0 9994 2 41338 31.0020 225.9519 0013980 326.0747 33.8993 14.99902897104367 ChubuSat-3 1 41339U 16012C 18011.96170669 .00000279 00000-0 15023-4 0 9998 2 41339 31.0085 224.9821 0013755 332.7300 27.2635 15.00095633104345 Horyu-4 1 41340U 16012D 18011.90382811 +.00000437 +00000-0 +26824-4 0 9995 2 41340 031.0039 221.3280 0014188 342.5838 017.4310 15.00857020104394 OUFTI-1 1 41458U 16025C 18013.33040520 .00001583 00000-0 87756-4 0 9990 2 41458 98.1596 67.7812 0169643 307.1283 51.4541 15.04151124 94159 [email protected] 1 41459U 16025D 18013.37821034 .00000404 00000-0 26148-4 0 9991 2 41459 98.1570 67.7277 0171004 307.4408 51.1352 15.03912171 94156 AAUSAT4 1 41460U 16025E 18013.49411616 .00002072 00000-0 11268-3 0 9996 2 41460 98.1521 68.1340 0162994 303.9395 54.6443 15.05154434 94212 LO-87 1 41557U 16033B 18013.43285528 .00001204 00000-0 46895-4 0 9998 2 41557 97.4484 97.8863 0013538 351.6314 8.4697 15.27907976 90527 NuSat2 1 41558U 16033C 18013.22712794 .00001309 00000-0 51014-4 0 9991 2 41558 97.4511 97.7573 0012981 351.4181 8.6834 15.27739697 90480 Lapan A3 1 41603U 16040E 18013.12005825 .00000004 00000-0 34185-5 0 9991 2 41603 97.4348 77.2713 0015068 63.8059 353.6393 15.19495872 86534 Swayam 1 41607U 16040J 18013.42164328 .00001400 00000-0 64738-4 0 9999 2 41607 97.4349 78.4381 0015415 64.5166 295.7663 15.21738612 86560 Pratham 1 41783U 16059A 18013.14809919 .00000054 00000-0 19936-4 0 9999 2 41783 98.1406 77.0400 0032852 220.6098 139.2653 14.62893813 69298 AlSat 1N 1 41789U 16059G 18013.44051816 .00000053 00000-0 19212-4 0 9999 2 41789 98.1407 78.2403 0027502 212.1328 147.8202 14.64118532 69373 ScatSat 1 41790U 16059H 18012.72786976 .00000013 00000-0 14540-4 0 9998 2 41790 98.2833 63.1527 0017734 205.1259 154.9074 14.50856889 68644 TY-1 1 41844U 16066D 18013.48956997 .00001253 00000-0 56532-4 0 9996 2 41844 97.4062 22.5633 0014495 216.2006 296.3168 15.22789250 65335 CAS-2T 1 41845U 16066E 18013.48937626 .00000104 00000-0 26799-4 0 9991 2 41845 98.7652 39.0206 0366086 344.1732 14.8259 14.37851172 61717 Pegasus-1 1 41846U 16066F 18012.87656449 +.00000381 +00000-0 +69011-4 0 9996 2 41846 098.7687 038.0343 0368374 347.9447 011.3097 14.37237802061599 STARS-C 1 41895U 98067KR 18012.89077781 +.00131990 +00000-0 +48272-3 0 9995 2 41895 051.6330 041.6918 0005879 029.9009 330.2330 15.87451464060953 TO-89 1 41932U 98067KU 18012.40467346 +.00016670 +00000-0 +15311-3 0 9999 2 41932 051.6391 058.1632 0004624 338.6052 021.4750 15.67846553056262 AOBA-V3LOX3 1 41935U 98067KX 18012.47925830 +.00021621 +00000-0 +18499-3 0 9998 2 41935 051.6382 056.3910 0004254 343.7550 016.3310 15.69384576056396 OSNSAT 1 41939U 98067KZ 18011.28402027 +.11925055 +12489-4 +54124-3 0 9997 2 41939 051.6147 038.9582 0001091 231.1728 128.9202 16.43639489055773 EO-88 1 42017U 17008BX 18012.89766613 +.00001529 +00000-0 +66214-4 0 9998 2 42017 097.4698 078.7578 0006087 192.0765 168.0327 15.23937787050411 HAVELSAT 1 42700U 98067LH 18013.33393964 .00013101 00000-0 14190-3 0 9990 2 42700 51.6386 62.1004 0005455 27.4687 332.6596 15.63917072 37735 SOMP2 1 42701U 98067LJ 18013.12433071 .00015660 00000-0 17200-3 0 9999 2 42701 51.6382 63.7003 0005435 26.7407 333.3867 15.63382319 37681 Columbia 1 42702U 98067LK 18013.51365302 .00099916 00000-0 47670-3 0 9994 2 42702 51.6314 51.1883 0006815 24.4901 335.6424 15.82005169 37816 PHOENIX 1 42706U 98067LP 18013.49514521 .00011704 00000-0 13040-3 0 9997 2 42706 51.6385 61.6799 0001560 1.9914 358.1087 15.63324732 37663 X-CubeSat 1 42707U 98067LQ 18013.34281321 .00014498 00000-0 15608-3 0 9996 2 42707 51.6366 62.1398 0001794 359.6850 0.4143 15.63977889 37639 qbee 1 42708U 98067LR 18013.48886192 .00013917 00000-0 15194-3 0 9994 2 42708 51.6382 61.6234 0001809 0.8897 359.2100 15.63658279 37619 ZA-AeroSat 1 42713U 98067LU 18013.34413701 .00011858 00000-0 13771-3 0 9998 2 42713 51.6378 63.6668 0002324 328.3241 31.7613 15.62230962 37285 LINK 1 42714U 98067LV 18012.54631114 .00024113 00000-0 23260-3 0 9992 2 42714 51.6356 65.0579 0002757 332.3946 27.6903 15.66352275 37301 UPSat 1 42716U 98067LX 18012.49932080 .00020445 00000-0 20565-3 0 9993 2 42716 51.6378 65.5208 0004049 23.4006 336.7173 15.65410291 37318 SpaceCube 1 42717U 98067LY 18013.50846824 .00013763 00000-0 15090-3 0 9999 2 42717 51.6377 61.7597 0004059 28.9305 331.1914 15.63557396 36698 Hoopoe 1 42718U 98067LZ 18013.51317322 .00015569 00000-0 16359-3 0 9992 2 42718 51.6381 61.0417 0003988 26.3189 333.8008 15.64528668 36706 Challenger 1 42721U 98067MA 18013.48282721 .00026971 00000-0 24245-3 0 9998 2 42721 51.6364 59.3109 0006495 10.2709 349.8419 15.68015367 36428 NJUST-1 1 42722U 98067MB 18013.45820564 .00010626 00000-0 12661-3 0 9998 2 42722 51.6386 63.6796 0006653 12.8131 347.3031 15.61684011 36363 UNSW-EC0 1 42723U 98067MC 18013.48392911 .00017614 00000-0 18385-3 0 9995 2 42723 51.6393 61.6057 0006334 10.6645 349.4483 15.64577572 36373 DUTHsat 1 42724U 98067MD 18013.33139776 .00024443 00000-0 22594-3 0 9993 2 42724 51.6370 60.5674 0005751 11.0551 349.0571 15.67392532 36294 LO-90 1 42725U 98067ME 18013.53909997 .00013528 00000-0 15329-3 0 9996 2 42725 51.6386 62.7215 0005754 14.5657 345.5502 15.62718329 36291 nSIGHT1 1 42726U 98067MF 18013.50638004 .00005840 00000-0 80077-4 0 9993 2 42726 51.6401 65.5175 0006104 18.9906 341.1313 15.58963222 36258 QBITO 1 42728U 98067MH 18013.34895853 .00014333 00000-0 15729-3 0 9992 2 42728 51.6403 62.9746 0003461 18.2568 341.8550 15.63494898 36071 Aalto-2 1 42729U 98067MJ 18013.34529212 .00014814 00000-0 16175-3 0 9996 2 42729 51.6386 62.9297 0003440 17.8483 342.2632 15.63592938 36082 SUSat 1 42730U 98067MK 18013.50314793 .00013398 00000-0 14970-3 0 9999 2 42730 51.6382 62.4766 0003516 16.3666 343.7441 15.63098987 36097 i-INSPIRE II 1 42731U 98067ML 18013.33279148 .00018580 00000-0 19115-3 0 9999 2 42731 51.6373 62.0659 0006366 327.3258 32.7343 15.64901044 36132 PolyITAN-2-SAU 1 42732U 98067MM 18013.13912768 .00019302 00000-0 20728-3 0 9995 2 42732 51.6380 63.7813 0006356 324.5593 35.4979 15.63778327 36096 SNUSAT-1 1 42733U 98067MN 18013.50438536 .00013438 00000-0 15010-3 0 9995 2 42733 51.6382 62.4760 0006453 328.1253 31.9351 15.63090975 36144 ExAlta-1 1 42734U 98067MP 18013.46620427 .00018402 00000-0 18924-3 0 9996 2 42734 51.6366 61.4573 0007747 349.4649 10.6183 15.64909594 36100 Aoxiang-1 1 42735U 98067MQ 18013.51010311 .00010511 00000-0 12452-3 0 9991 2 42735 51.6380 63.2664 0007178 9.8979 350.2155 15.61845768 37505 BeEagleSat 1 42736U 98067MR 18013.34843067 .00011943 00000-0 13721-3 0 9995 2 42736 51.6378 63.6851 0007045 8.0083 352.1023 15.62488920 36176 Atlantis 1 42737U 98067MS 18012.55955178 .00068283 00000-0 40956-3 0 9994 2 42737 51.6299 59.0744 0007237 4.6745 355.4321 15.77111401 36056 CAS-4B 1 42759U 17034B 18013.39782043 -.00000004 00000-0 13325-4 0 9994 2 42759 43.0172 212.9411 0008458 226.3629 199.8803 15.09162717 32069 CAS-4A 1 42761U 17034D 18013.52473169 .00000054 00000-0 16879-4 0 9999 2 42761 43.0169 212.1171 0009070 227.2701 226.4008 15.09239347 32074 UCLSat 1 42765U 17036A 18012.88205396 +.00001275 +00000-0 +59830-4 0 9998 2 42765 097.4238 075.0868 0010390 259.2138 100.7929 15.21427645031689 NIUSat 1 42766U 17036B 18013.51764397 .00000940 00000-0 46679-4 0 9996 2 42766 97.4239 75.3163 0014752 242.2586 117.7153 15.20052193 31034 LituanicaSAT 2 1 42768U 17036D 18012.94345965 +.00001954 +00000-0 +91829-4 0 9993 2 42768 097.4246 074.8630 0014641 247.4531 112.5155 15.20708005030967 Aalto 1 1 42775U 17036L 18012.92952602 +.00000861 +00000-0 +42564-4 0 9999 2 42775 097.4236 074.8732 0012868 245.1216 114.8681 15.20460027030903 URSA MAIOR 1 42776U 17036M 18013.12057997 .00000901 00000-0 44284-4 0 9992 2 42776 97.4240 75.0844 0012759 244.5538 115.4377 15.20523234 30937 Max Valier Sat 1 42778U 17036P 18013.13136132 .00000979 00000-0 47283-4 0 9991 2 42778 97.4259 75.2661 0011309 249.9415 110.0603 15.20972173 30934 Pegasus 1 42784U 17036V 18012.83557600 +.00001147 +00000-0 +54416-4 0 9995 2 42784 097.4240 075.0030 0010911 259.3259 100.6748 15.21262319030893 NUDATSat 1 42787U 17036Y 18012.80344481 .00001574 00000-0 72617-4 0 9993 2 42787 97.4251 75.0464 0010742 264.6889 95.3170 15.21666893 30736 SUCHAI 1 1 42788U 17036Z 18012.94824719 +.00001369 +00000-0 +63962-4 0 9991 2 42788 097.4241 075.1557 0010541 258.9623 101.0427 15.21467040030989 SKCUBE 1 42789U 17036AA 18012.87969298 +.00001301 +00000-0 +60958-4 0 9994 2 42789 097.4239 075.0918 0010364 259.2316 100.7754 15.21460495030899 VZLUSAT 1 1 42790U 17036AB 18012.79551062 +.00001578 +00000-0 +72764-4 0 9997 2 42790 097.4240 075.0480 0010072 259.8654 100.1446 15.21698541030880 VENTA 1 1 42791U 17036AC 18012.73607432 +.00001185 +00000-0 +55677-4 0 9993 2 42791 097.4239 074.9766 0009980 260.4900 099.5208 15.21530143030860 Robusta 1B 1 42792U 17036AD 18013.38853956 .00001254 00000-0 58612-4 0 9999 2 42792 97.4237 75.6269 0009958 258.3472 101.6646 15.21595562 30980 D-SAT 1 42794U 17036AF 18013.13330981 .00000267 00000-0 28566-4 0 9990 2 42794 97.6155 73.4626 0128776 78.2428 283.3204 14.90760637 30627 BIRD-J 1 42820U 98067MU 18012.56705400 +.00012589 +00000-0 +14876-3 0 9999 2 42820 051.6380 068.9674 0002909 310.5507 049.5234 15.61710477029492 BIRD-G 1 42821U 98067MV 18013.35035528 .00011398 00000-0 13645-3 0 9995 2 42821 51.6379 65.1991 0002937 318.1759 41.9009 15.61483352 29592 BIRD-M 1 42822U 98067MW 18013.21954765 .00014251 00000-0 16847-3 0 9992 2 42822 51.6380 65.8271 0002975 319.8028 40.2746 15.61571368 29575 BIRD-B 1 42823U 98067MX 18013.34912617 .00011904 00000-0 14163-3 0 9998 2 42823 51.6386 65.2006 0005976 333.7403 26.3287 15.61584653 29596 BIRD-N 1 42824U 98067MY 18013.35863406 .00011427 00000-0 13678-3 0 9991 2 42824 51.6392 65.2705 0005870 334.2956 25.7745 15.61474879 29581 TechnoSat 1 42829U 17042E 18013.51776233 .00000062 00000-0 11797-4 0 9993 2 42829 97.6080 281.5854 0014289 0.2543 359.8681 14.90753024 27293 Mayak 1 42830U 17042F 18013.49771488 .00000768 00000-0 82865-4 0 9996 2 42830 97.6087 281.6262 0014576 357.4130 2.7011 14.91064979 27289 OBJECT MZ 1 42910U 98067MZ 18013.17402492 .00010885 00000-0 13918-3 0 9995 2 42910 51.6375 67.7598 0006950 352.8592 7.2301 15.59786021 23159 OBJECT NA 1 42911U 98067NA 18013.47958132 .00011088 00000-0 13961-3 0 9990 2 42911 51.6386 66.0737 0006523 349.6895 10.3963 15.60172867 23186 OBJECT NB 1 42912U 98067NB 18013.50281073 .00010089 00000-0 12920-3 0 9992 2 42912 51.6381 66.1941 0005994 2.1288 357.9729 15.59847749 23207 OBJECT NC 1 42913U 98067NC 18012.78913485 .00018141 00000-0 20319-3 0 9999 2 42913 51.6374 68.1898 0005128 5.8948 354.2106 15.62751657 23075 OBJECT ND 1 42914U 98067ND 18012.74865353 .00010457 00000-0 13521-3 0 9995 2 42914 51.6388 70.1880 0005851 353.5819 6.5098 15.59543949 23074 QIKCOM-1 1 42983U 98067NF 18013.41285285 .00002350 00000-0 41293-4 0 9997 2 42983 51.6432 69.9255 0004315 355.0672 102.6499 15.55132161 12123 AO-91 1 43017U 17073E 18012.76966464 +.00000854 +00000-0 +72046-4 0 9993 2 43017 097.6968 310.5010 0261809 057.6788 304.9487 14.77835577008152 EcAMSat 1 43019U 98067NG 18013.39576235 .00003851 00000-0 62538-4 0 9995 2 43019 51.6408 70.0195 0004979 322.3350 37.7292 15.55392201 94446 OBJECT A 1 43111U 18004A 18013.19211319 .00000645 00000-0 32266-4 0 9991 2 43111 97.5559 75.3151 0010709 251.1302 108.8773 15.21022043 155 OBJECT B 1 43112U 18004B 18013.52076677 .00000138 00000-0 93366-5 0 9991 2 43112 97.5561 75.6457 0009783 255.6307 104.3842 15.21343267 191 OBJECT C 1 43113U 18004C 18012.92868117 +.00000062 +00000-0 +59274-5 0 9999 2 43113 097.5556 075.0516 0009029 263.3273 096.6935 15.21600647000113 OBJECT D 1 43114U 18004D 18012.62760830 -.00000072 00000-0 00000+0 0 9999 2 43114 97.5560 74.7508 0008686 267.7003 244.3159 15.21693241 58 OBJECT E 1 43115U 18004E 18012.75285563 -.00000072 00000-0 00000+0 0 9999 2 43115 97.5543 74.8827 0009871 260.3296 217.4798 15.21728377 87 OBJECT F 1 43116U 18004F 18012.62103014 -.00000072 00000-0 00000+0 0 9996 2 43116 97.5615 74.7503 0008575 275.2563 201.0859 15.21908125 66 OBJECT T 1 43128U 18004T 18012.73710755 -.00000114 00000-0 00000+0 0 9994 2 43128 96.8834 74.7275 0019544 354.7036 125.8310 15.70031149 79 OBJECT U 1 43129U 18004U 18013.56023078 .00212219 00000-0 14371-2 0 9991 2 43129 97.2210 76.3615 0030115 85.0462 21.6761 15.73774921 206 99934 1 99934U 1801D 18012.18036412 .00000000 00000-0 00000-0 0 15 2 99934 97.6514 74.0671 0008545 308.1824 275.3575 15.22876478 16 /EX